Weather History for Athens, OH

Change the Weather History Date:

Monday, March 11, 2013

  Actual Average (KPKB) Record (KPKB)
Temperature  
Mean Temperature 53 °F 42 °F  
Max Temperature 62 °F 52 °F 80 °F (1990)
Min Temperature 44 °F 31 °F 11 °F (1999)
Degree Days  
Heating Degree Days 12 23  
Month to date heating degree days 275  
Since 1 July heating degree days 4065  
Growing Degree Days 3 (Base 50)    
Moisture  
Dew Point 38 °F    
Average Humidity 55    
Maximum Humidity 91    
Minimum Humidity 31    
Precipitation  
Precipitation 0.00 in 0.12 in 0.62 in (2013)
Month to date precipitation 1.23  
Year to date precipitation 6.88  
Sea Level Pressure  
Sea Level Pressure 29.81 in    
Wind  
Wind Speed 7 mph (South)    
Max Wind Speed 17 mph    
Max Gust Speed 26 mph    
Visibility 10 miles    
Events Rain    
T = Trace of Precipitation, MM = Missing Value Source: NWS Daily Summary

Daily Weather History Graph

Daily Weather History Graph

Search for Another Location

Airport:

Trip Planner

Search our weather history database for the weather conditions in past years. The results will help you decide how hot, cold, wet, or windy it might be!

Date:

Astronomy

Mar. 11, 2013 Rise Set
Actual Time 7:46 AM EDT 7:32 PM EDT
Civil Twilight 7:19 AM EDT 7:58 PM EDT
Nautical Twilight 6:48 AM EDT 8:29 PM EDT
Astronomical Twilight 6:17 AM EDT 9:01 PM EDT
Moon 7:19 AM EDT (3/11) 7:42 PM EDT (3/11)
Length of Visible Light 12h 39m
Length of Day
11h 45m
Waning Crescent, 0% of the Moon is Illuminated
Mar 11
Waning Crescent
Mar 11
New
Mar 19
First Quarter
Mar 27
Full
Apr 3
Last Quarter

Hourly Weather History & Observations

Time (EDT) Temp. Windchill Dew Point Humidity Pressure Visibility Wind Dir Wind Speed Gust Speed Precip Events Conditions
12:15 AM 62.2 °F - 31.5 °F 31% 29.91 in 10.0 mi SSE 9.2 mph - N/A   Clear
12:35 AM 61.9 °F - 31.5 °F 32% 29.92 in 10.0 mi South 6.9 mph 16.1 mph N/A   Clear
1:15 AM 60.8 °F - 31.5 °F 33% 29.92 in 10.0 mi SSE 8.1 mph 17.3 mph N/A   Clear
1:35 AM 61.0 °F - 31.3 °F 33% 29.91 in 10.0 mi SSE 8.1 mph 16.1 mph N/A   Clear
2:15 AM 60.1 °F - 31.3 °F 34% 29.90 in 10.0 mi SSE 9.2 mph - N/A   Clear
2:35 AM 59.9 °F - 31.5 °F 34% 29.91 in 10.0 mi SSE 6.9 mph - N/A   Clear
2:55 AM 59.5 °F - 31.3 °F 34% 29.90 in 10.0 mi SSE 9.2 mph - N/A   Clear
3:15 AM 59.4 °F - 31.1 °F 34% 29.89 in 10.0 mi SSE 6.9 mph - N/A   Clear
3:35 AM 59.0 °F - 30.7 °F 34% 29.88 in 10.0 mi SSE 6.9 mph - N/A   Clear
3:55 AM 58.5 °F - 30.9 °F 35% 29.88 in 10.0 mi SSE 6.9 mph - N/A   Clear
4:15 AM 58.1 °F - 30.7 °F 35% 29.87 in 10.0 mi SSE 6.9 mph - N/A   Clear
4:35 AM 57.6 °F - 31.1 °F 37% 29.86 in 10.0 mi SSE 5.8 mph - N/A   Scattered Clouds
4:55 AM 58.1 °F - 30.4 °F 35% 29.86 in 10.0 mi SSE 5.8 mph - N/A   Scattered Clouds
5:15 AM 57.2 °F - 30.9 °F 37% 29.86 in 10.0 mi SSE 4.6 mph - N/A   Scattered Clouds
5:35 AM 57.6 °F - 30.0 °F 35% 29.87 in 10.0 mi SSE 3.5 mph - N/A   Scattered Clouds
5:55 AM 57.4 °F - 29.8 °F 35% 29.87 in 10.0 mi SSE 3.5 mph - N/A   Scattered Clouds
6:15 AM 57.4 °F - 29.8 °F 35% 29.87 in 10.0 mi SSE 4.6 mph - N/A   Scattered Clouds
6:35 AM 56.5 °F - 31.3 °F 38% 29.87 in 10.0 mi SSE 3.5 mph - N/A   Scattered Clouds
6:55 AM 56.1 °F - 30.6 °F 38% 29.87 in 10.0 mi SSE 3.5 mph - N/A   Clear
7:15 AM 56.3 °F - 30.4 °F 37% 29.87 in 10.0 mi SE 3.5 mph - N/A   Clear
7:35 AM 55.8 °F - 31.1 °F 39% 29.88 in 10.0 mi Calm Calm - N/A   Clear
7:55 AM 56.3 °F - 30.7 °F 38% 29.88 in 10.0 mi Calm Calm - N/A   Clear
8:15 AM 56.7 °F - 30.4 °F 37% 29.87 in 10.0 mi SSE 3.5 mph - N/A   Clear
8:35 AM 56.1 °F - 31.6 °F 39% 29.88 in 10.0 mi SSE 4.6 mph - N/A   Scattered Clouds
8:55 AM 55.8 °F - 31.6 °F 40% 29.88 in 10.0 mi SSE 3.5 mph - N/A   Scattered Clouds
9:15 AM 56.3 °F - 31.8 °F 39% 29.88 in 10.0 mi SSE 4.6 mph - N/A   Clear
9:35 AM 56.5 °F - 31.8 °F 39% 29.88 in 10.0 mi SSE 4.6 mph - N/A   Scattered Clouds
9:55 AM 57.2 °F - 32.0 °F 38% 29.87 in 10.0 mi SSE 5.8 mph - N/A   Mostly Cloudy
10:15 AM 58.1 °F - 32.0 °F 37% 29.87 in 10.0 mi SSE 6.9 mph - N/A   Mostly Cloudy
10:35 AM 58.3 °F - 32.4 °F 38% 29.86 in 10.0 mi SSE 5.8 mph - N/A   Overcast
10:55 AM 59.0 °F - 33.1 °F 38% 29.85 in 10.0 mi SSE 8.1 mph - N/A   Scattered Clouds
11:15 AM 59.5 °F - 33.3 °F 37% 29.82 in 10.0 mi SSE 10.4 mph - N/A   Mostly Cloudy
11:35 AM 59.4 °F - 34.5 °F 39% 29.82 in 10.0 mi SSE 9.2 mph 19.6 mph N/A   Overcast
11:55 AM 58.5 °F - 37.2 °F 45% 29.82 in 10.0 mi SE 6.9 mph 17.3 mph N/A Rain Light Rain
12:15 PM 59.4 °F - 36.9 °F 43% 29.82 in 10.0 mi SSE 9.2 mph - N/A   Mostly Cloudy
12:35 PM 59.9 °F - 36.5 °F 42% 29.79 in 10.0 mi SSE 10.4 mph 19.6 mph N/A   Overcast
12:55 PM 59.9 °F - 36.7 °F 42% 29.79 in 10.0 mi SSE 10.4 mph 17.3 mph N/A   Mostly Cloudy
1:15 PM 59.2 °F - 38.5 °F 46% 29.79 in 10.0 mi SSE 11.5 mph 16.1 mph N/A Rain Light Rain
1:35 PM 57.0 °F - 42.3 °F 58% 29.79 in 10.0 mi SSE 8.1 mph 16.1 mph N/A Rain Light Rain
1:55 PM 56.1 °F - 43.3 °F 62% 29.75 in 10.0 mi ESE 8.1 mph - N/A Rain Rain
2:15 PM 56.1 °F - 44.2 °F 64% 29.74 in 10.0 mi SE 4.6 mph - N/A   Overcast
2:35 PM 56.5 °F - 45.0 °F 65% 29.73 in 10.0 mi SE 8.1 mph - N/A Rain Light Rain
2:55 PM 56.3 °F - 45.7 °F 68% 29.71 in 10.0 mi SE 4.6 mph - N/A Rain Light Rain
3:15 PM 57.4 °F - 45.0 °F 63% 29.70 in 10.0 mi SSE 3.5 mph - N/A   Overcast
3:35 PM 58.5 °F - 45.5 °F 62% 29.69 in 10.0 mi Calm Calm - N/A   Light Drizzle
3:55 PM 59.9 °F - 45.5 °F 59% 29.68 in 10.0 mi South 5.8 mph - N/A   Light Drizzle
4:15 PM 58.5 °F - 47.3 °F 66% 29.70 in 10.0 mi SSW 5.8 mph - N/A Rain Rain
4:35 PM 56.7 °F - 49.5 °F 77% 29.69 in 10.0 mi South 6.9 mph - N/A Rain Light Rain
4:55 PM 55.9 °F - 50.2 °F 81% 29.69 in 10.0 mi SSW 4.6 mph - N/A Rain Rain
5:15 PM 55.4 °F - 50.9 °F 85% 29.68 in 10.0 mi SSE 4.6 mph - N/A Rain Light Rain
5:35 PM 54.9 °F - 51.1 °F 87% 29.68 in 10.0 mi SSE 6.9 mph - N/A Rain Light Rain
5:55 PM 54.9 °F - 51.3 °F 88% 29.69 in 10.0 mi South 9.2 mph - N/A Rain Light Rain
6:15 PM 55.6 °F - 50.9 °F 84% 29.68 in 10.0 mi South 12.7 mph 16.1 mph N/A Rain Rain
6:35 PM 55.8 °F - 50.5 °F 83% 29.68 in 10.0 mi South 11.5 mph 25.3 mph N/A Rain Light Rain
7:15 PM 55.4 °F - 49.5 °F 80% 29.69 in 10.0 mi SSW 11.5 mph 25.3 mph N/A   Drizzle
7:35 PM 54.7 °F - 49.3 °F 82% 29.70 in 10.0 mi SSW 11.5 mph 20.7 mph N/A Rain Light Rain
7:55 PM 53.2 °F - 49.1 °F 86% 29.72 in 7.0 mi WSW 17.3 mph 24.2 mph N/A Rain Rain
8:15 PM 50.2 °F - 47.3 °F 90% 29.74 in 10.0 mi West 15.0 mph 24.2 mph N/A Rain Light Rain
8:35 PM 48.7 °F - 46.0 °F 90% 29.75 in 5.0 mi WSW 15.0 mph 24.2 mph N/A Rain Light Rain
8:55 PM 48.2 °F - 45.7 °F 91% 29.76 in 10.0 mi West 10.4 mph - N/A Rain Light Rain
9:15 PM 47.3 °F - 43.9 °F 88% 29.77 in 10.0 mi West 13.8 mph 23.0 mph N/A   Overcast
9:35 PM 46.0 °F 39.0 °F 42.1 °F 86% 29.78 in 10.0 mi West 17.3 mph 26.5 mph N/A   Overcast
9:55 PM 45.7 °F 38.8 °F 41.0 °F 84% 29.79 in 10.0 mi WSW 16.1 mph 21.9 mph N/A   Overcast
10:35 PM 45.1 °F 39.9 °F 39.7 °F 81% 29.80 in 10.0 mi WSW 10.4 mph - N/A   Overcast
10:55 PM 45.0 °F 40.1 °F 39.6 °F 81% 29.82 in 10.0 mi WSW 9.2 mph - N/A Rain Light Rain
11:15 PM 44.2 °F 38.8 °F 39.4 °F 83% 29.82 in 10.0 mi WSW 10.4 mph 17.3 mph N/A Rain Light Rain
11:35 PM 44.1 °F 38.1 °F 39.0 °F 82% 29.82 in 10.0 mi WSW 11.5 mph - N/A   Overcast